DMSP 5D-2 F13 DEB, 42265

Orbit data source: Space-Track

DMSP 5D-2 F13 DEB, 42265 is space debris in SSO originally from a launch on Fri, 24 Mar 1995 UTC launched from the Air Force Western Test Range (AFWTR). Debris objects in space refer to the collection of defunct objects orbiting the Earth. Examples of debris include non-operational satellites, rocket bodies, and fragments generated from explosions, collisions, or faulty payload assembly.

Loading next visibility...
Identifier
42265, 1995-015GF
Orbit
SSO
Country
Flag of USUS
Related business
Manufacturer
Unknown
Mission
Spacecraft
Bus & Motor
Unknown
Mass
Unknown
Launch date (UTC)
1995-03-24 (30 years ago)
Launch vehicle
Unknown
Launch site
Air Force Western Test Range (AFWTR)
Object type
Payload
Rocket body
Debris
Shape & HBR
Unknown
Radar Cross Section
Small (<0.1 m²)

Expand to show TLE details & history
Last TLE update: 1 day ago

TLE from 1 day ago
0 DMSP 5D-2 F13 DEB
1 42265U 95015GF  25260.04375996  .00004084  00000-0  14248-2 0  9994
2 42265  98.7030 291.2269 0006159 112.4188 247.7650 14.35844650509369
Epoch: 2025-09-17T01:03Z
TLE epoch observation values (Epoch: 2025-09-17T01:03:00.86Z)
Latitude
-0.00005°
Longitude
-80.75205°
Altitude
776.866 km
Speed
7.465 km/s
True Right ascension
19h 24m 54s
True Declination
0° 00' 00"
Sunlit
Object was in daylight at epoch
Visualization orbit readout
Latitude
Unknown
Longitude
Unknown
Altitude
Unknown
Speed
Unknown
Apparent Right ascension
Unknown
Apparent Declination
Unknown
Sunlit
N/A
Visualization observer readout
Local Sidereal Time
05:12:32
Azimuth
Unknown
Elevation
Unknown
Doppler factor
Unknown
Orbital elements
Apogee altitude
773.8 km
Perigee altitude
764.996 km
Semi-major axis
7,147.535 km
Eccentricity
0.00062
Inclination
98.703°
RAAN
291.2269°
Arg. of periapsis
112.4188°
True anomaly
247.69969°
Mean anomaly
247.765°
Eccentric anomaly
247.73234°
Mean motion
3.59177 °/min
Orbital period
100.23 mins
BSTAR
0.0014248
Loading maneuver chart data...
Computing Atmospheric mass density...

Documentation

Showing up to 5 results
|